This demonstration page uses our WeatherBlox Daily Observations layout. Learn more.

Left ArrowRight Arrow

38.88101, -77.10428

Hourly Observations for June 17, 2021

Temp ( °F °C ) Dew Point ( °F °C ) Humidity (%) Winds ( mph kmh ) Pressure ( in mb ) Visibility ( mi km ) Precip ( " mm )
12:52 am 00:52 Cloudy 71 21.7 43 6.1 36 36 NW 8 13 29.98 1015 10 16 N/A
1:52 am 01:52 Cloudy 69 20.6 44 6.7 41 41 NNW 13 20 29.98 1015 10 16 N/A
2:52 am 02:52 Mostly Cloudy 66 18.9 44 6.7 45 45 NNW 8 13 29.98 1015 10 16 N/A
3:52 am 03:52 Mostly Clear 64 17.8 43 6.1 46 46 NNW 7 11 29.99 1016 10 16 N/A
4:52 am 04:52 Mostly Cloudy 63 17.2 43 6.1 48 48 NNW 6 9 29.99 1016 10 16 N/A
5:52 am 05:52 Mostly Sunny 60 15.6 44 6.7 56 56 N 7 11 30.01 1016 10 16 N/A
6:52 am 06:52 Mostly Sunny 62 16.7 44 6.7 52 52 NNW 12 19 30.03 1017 10 16 N/A
7:52 am 07:52 Mostly Sunny 65 18.3 45 7.2 49 49 NNW 10 17 30.04 1017 10 16 N/A
8:52 am 08:52 Mostly Sunny 69 20.6 45 7.2 42 42 N 9 15 30.05 1018 10 16 N/A
9:52 am 09:52 Sunny 72 22.2 42 5.6 34 34 N 8 13 30.05 1018 10 16 N/A
10:52 am 10:52 Sunny 73 22.8 42 5.6 33 33 NNE 6 9 30.04 1017 10 16 N/A
11:52 am 11:52 Sunny 76 24.4 45 7.2 33 33 WNW 10 17 30.05 1018 10 16 N/A
12:52 pm 12:52 Mostly Sunny 76 24.4 43 6.1 31 31 VRB 7 11 30.04 1017 10 16 N/A
1:52 pm 13:52 Mostly Sunny 77 25 42 5.6 29 29 NNW 7 11 30.03 1017 10 16 N/A
2:52 pm 14:52 Mostly Sunny 78 25.6 43 6.1 29 29 VRB 3 6 30.02 1017 10 16 N/A
3:52 pm 15:52 Partly Cloudy 78 25.6 41 5 27 27 W 9 15 30.01 1016 10 16 N/A
4:52 pm 16:52 Mostly Sunny 79 26.1 44 6.7 29 29 N 10 17 30.01 1016 10 16 N/A
5:52 pm 17:52 Mostly Sunny 79 26.1 40 4.4 25 25 W 8 13 30.01 1016 10 16 N/A
6:52 pm 18:52 Mostly Cloudy 78 25.6 39 3.9 25 25 WNW 8 13 30.01 1016 10 16 N/A
7:52 pm 19:52 Mostly Cloudy 76 24.4 36 2.2 23 23 WNW 7 11 30.02 1017 10 16 N/A
8:52 pm 20:52 Mostly Cloudy 75 23.9 36 2.2 24 24 WNW 5 7 30.03 1017 10 16 N/A
9:52 pm 21:52 Mostly Clear 74 23.3 47 8.3 38 38 ESE 3 6 30.04 1017 10 16 N/A
10:52 pm 22:52 Mostly Clear 68 20 45 7.2 44 44 SSW 5 7 30.06 1018 10 16 N/A
11:52 pm 23:52 Mostly Clear 67 19.4 46 7.8 47 47 SSW 6 9 30.07 1018 10 16 N/A

Powered by AerisWeather